When you browse on this site, cookies collect data to enhance your experience and personalize the content and advertising you see.
Visit our Privacy Policy to learn more. By continuing to use the site, you agree to this use of cookies and data.
EN

Hourly Weather Elbasan

Today, 15 July, Wednesday

Time Temperature Precipitation Wind Pressure Humidity
00:00 +20°C° 0 mm 1 mps 734 mmHg 76%
01:00 +20°C° 0 mm 1 mps 734 mmHg 77%
02:00 +20°C° 0 mm 1 mps 734 mmHg 77%
03:00 +19°C° 0 mm 1 mps 734 mmHg 78%
04:00 +19°C° 0 mm 1 mps 734 mmHg 79%
05:00 +21°C° 0 mm 1 mps 734 mmHg 73%
06:00 +21°C° 0 mm 0 mps 734 mmHg 67%
07:00 +23°C° 0 mm 0 mps 734 mmHg 62%
08:00 +26°C° 0 mm 1 mps 735 mmHg 54%
09:00 +27°C° 0 mm 1 mps 735 mmHg 47%
10:00 +29°C° 0 mm 2 mps 735 mmHg 40%
11:00 +29°C° 0 mm 2 mps 735 mmHg 39%
12:00 +30°C° 0 mm 3 mps 735 mmHg 37%
13:00 +32°C° 0 mm 4 mps 735 mmHg 36%
14:00 +30°C° 0 mm 4 mps 735 mmHg 37%
15:00 +30°C° 0 mm 4 mps 734 mmHg 38%
16:00 +29°C° 0 mm 4 mps 734 mmHg 40%
17:00 +27°C° 0 mm 3 mps 734 mmHg 45%
18:00 +25°C° 0 mm 2 mps 734 mmHg 51%
19:00 +23°C° 0 mm 1 mps 734 mmHg 56%
20:00 +23°C° 0 mm 1 mps 734 mmHg 58%
21:00 +22°C° 0 mm 1 mps 734 mmHg 59%
22:00 +21°C° 0 mm 1 mps 734 mmHg 60%
23:00 +21°C° 0 mm 1 mps 734 mmHg 61%

Tomorrow, 16 July, Thursday

Time Temperature Precipitation Wind Pressure Humidity
00:00 +21°C° 0 mm 1 mps 734 mmHg 62%
01:00 +20°C° 0 mm 1 mps 734 mmHg 63%
02:00 +20°C° 0 mm 1 mps 734 mmHg 64%
03:00 +20°C° 0 mm 1 mps 733 mmHg 65%
04:00 +20°C° 0 mm 1 mps 733 mmHg 65%
05:00 +22°C° 0 mm 1 mps 733 mmHg 62%
06:00 +21°C° 0 mm 0 mps 734 mmHg 58%
07:00 +23°C° 0 mm 0 mps 734 mmHg 54%
08:00 +26°C° 0 mm 1 mps 734 mmHg 51%
09:00 +27°C° 0 mm 2 mps 734 mmHg 48%
10:00 +29°C° 0 mm 2 mps 734 mmHg 44%
11:00 +29°C° 0.1 mm 3 mps 734 mmHg 43%
12:00 +30°C° 0.1 mm 4 mps 733 mmHg 42%
13:00 +30°C° 0.1 mm 4 mps 733 mmHg 40%
14:00 +30°C° 0.1 mm 4 mps 733 mmHg 43%
15:00 +29°C° 0.1 mm 4 mps 732 mmHg 45%
16:00 +29°C° 0.1 mm 4 mps 732 mmHg 47%
17:00 +27°C° 0.1 mm 3 mps 732 mmHg 54%
18:00 +25°C° 0.1 mm 2 mps 732 mmHg 61%
19:00 +23°C° 0.1 mm 1 mps 732 mmHg 68%
20:00 +22°C° 0 mm 1 mps 732 mmHg 70%
21:00 +22°C° 0 mm 1 mps 732 mmHg 73%
22:00 +21°C° 0 mm 1 mps 733 mmHg 75%
23:00 +21°C° 0 mm 1 mps 732 mmHg 75%

Day after tomorrow, 17 July, Friday

Time Temperature Precipitation Wind Pressure Humidity
00:00 +20°C° 0 mm 1 mps 732 mmHg 75%
01:00 +20°C° 0 mm 1 mps 732 mmHg 75%
02:00 +20°C° 0 mm 1 mps 732 mmHg 75%
03:00 +20°C° 0 mm 1 mps 732 mmHg 76%
04:00 +20°C° 0 mm 1 mps 731 mmHg 76%
05:00 +21°C° 0 mm 1 mps 732 mmHg 70%
06:00 +23°C° 0 mm 1 mps 732 mmHg 64%
07:00 +25°C° 0 mm 1 mps 732 mmHg 59%
08:00 +27°C° 0 mm 1 mps 732 mmHg 53%
09:00 +29°C° 0 mm 1 mps 732 mmHg 48%
10:00 +30°C° 0 mm 1 mps 732 mmHg 43%
11:00 +31°C° 0.3 mm 2 mps 732 mmHg 42%
12:00 +31°C° 0.3 mm 2 mps 731 mmHg 41%
13:00 +31°C° 0.3 mm 3 mps 731 mmHg 40%
14:00 +31°C° 0.2 mm 3 mps 731 mmHg 43%
15:00 +30°C° 0.2 mm 3 mps 731 mmHg 45%
16:00 +29°C° 0.2 mm 3 mps 730 mmHg 47%
17:00 +27°C° 0 mm 2 mps 730 mmHg 52%
18:00 +25°C° 0 mm 1 mps 730 mmHg 57%
19:00 +24°C° 0 mm 1 mps 731 mmHg 62%
20:00 +23°C° 0 mm 1 mps 731 mmHg 63%
21:00 +22°C° 0 mm 1 mps 731 mmHg 65%
22:00 +21°C° 0 mm 1 mps 731 mmHg 66%
23:00 +21°C° 0 mm 1 mps 731 mmHg 67%

18 July, Saturday

Time Temperature Precipitation Wind Pressure Humidity
00:00 +21°C° 0 mm 1 mps 731 mmHg 67%
01:00 +20°C° 0 mm 1 mps 731 mmHg 68%
02:00 +20°C° 0 mm 1 mps 731 mmHg 68%
03:00 +20°C° 0 mm 1 mps 731 mmHg 69%
04:00 +20°C° 0 mm 1 mps 731 mmHg 70%
05:00 +22°C° 0 mm 1 mps 731 mmHg 65%
06:00 +24°C° 0 mm 1 mps 731 mmHg 61%
07:00 +24°C° 0 mm 0 mps 731 mmHg 56%
08:00 +27°C° 0.3 mm 1 mps 731 mmHg 52%
09:00 +28°C° 0.3 mm 1 mps 731 mmHg 48%
10:00 +30°C° 0.3 mm 2 mps 731 mmHg 44%
11:00 +30°C° 0.4 mm 3 mps 731 mmHg 43%
12:00 +30°C° 0.4 mm 3 mps 731 mmHg 43%
13:00 +30°C° 0.4 mm 4 mps 731 mmHg 43%
14:00 +30°C° 0.4 mm 4 mps 731 mmHg 45%
15:00 +29°C° 0.4 mm 3 mps 731 mmHg 47%
16:00 +29°C° 0.4 mm 3 mps 730 mmHg 48%
17:00 +27°C° 0.2 mm 3 mps 731 mmHg 56%
18:00 +25°C° 0.2 mm 2 mps 731 mmHg 63%
19:00 +23°C° 0.2 mm 1 mps 731 mmHg 71%
20:00 +22°C° 0.1 mm 1 mps 731 mmHg 76%
21:00 +21°C° 0.1 mm 1 mps 731 mmHg 81%
22:00 +18°C° 0.1 mm 0 mps 732 mmHg 86%
23:00 +18°C° 0 mm 0 mps 732 mmHg 87%

19 July, Sunday

Time Temperature Precipitation Wind Pressure Humidity
00:00 +17°C° 0 mm 0 mps 732 mmHg 88%
01:00 +17°C° 0 mm 0 mps 732 mmHg 90%
02:00 +17°C° 0 mm 0 mps 732 mmHg 89%
03:00 +17°C° 0 mm 0 mps 732 mmHg 89%
04:00 +17°C° 0 mm 0 mps 732 mmHg 89%
05:00 +18°C° 0 mm 0 mps 732 mmHg 82%
06:00 +20°C° 0 mm 0 mps 732 mmHg 76%
07:00 +22°C° 0 mm 0 mps 732 mmHg 70%
08:00 +25°C° 0 mm 1 mps 733 mmHg 62%
09:00 +27°C° 0 mm 1 mps 733 mmHg 55%
10:00 +29°C° 0 mm 2 mps 733 mmHg 48%
11:00 +30°C° 0 mm 2 mps 733 mmHg 46%
12:00 +30°C° 0 mm 3 mps 733 mmHg 44%
13:00 +31°C° 0 mm 3 mps 733 mmHg 43%
14:00 +30°C° 0 mm 3 mps 733 mmHg 46%
15:00 +30°C° 0 mm 3 mps 733 mmHg 48%
16:00 +29°C° 0 mm 3 mps 733 mmHg 51%
17:00 +27°C° 0 mm 3 mps 733 mmHg 60%
18:00 +25°C° 0 mm 2 mps 733 mmHg 68%
19:00 +23°C° 0 mm 1 mps 733 mmHg 77%
20:00 +23°C° 0 mm 1 mps 733 mmHg 80%
21:00 +22°C° 0 mm 1 mps 733 mmHg 83%
22:00 +19°C° 0 mm 0 mps 733 mmHg 86%
23:00 +21°C° 0 mm 1 mps 733 mmHg 86%

20 July, Monday

Time Temperature Precipitation Wind Pressure Humidity
00:00 +21°C° 0 mm 1 mps 733 mmHg 86%
01:00 +20°C° 0 mm 1 mps 733 mmHg 86%
02:00 +20°C° 0 mm 1 mps 733 mmHg 86%
03:00 +20°C° 0 mm 1 mps 733 mmHg 86%
04:00 +20°C° 0 mm 1 mps 733 mmHg 86%
05:00 +22°C° 0 mm 1 mps 733 mmHg 79%
06:00 +24°C° 0 mm 1 mps 734 mmHg 72%
07:00 +23°C° 0 mm 0 mps 734 mmHg 65%
08:00 +27°C° 0 mm 1 mps 734 mmHg 58%
09:00 +29°C° 0 mm 1 mps 734 mmHg 51%
10:00 +31°C° 0 mm 1 mps 734 mmHg 43%
11:00 +32°C° 0 mm 2 mps 734 mmHg 40%
12:00 +34°C° 0 mm 3 mps 734 mmHg 37%
13:00 +34°C° 0 mm 4 mps 734 mmHg 33%
14:00 +34°C° 0 mm 4 mps 734 mmHg 36%
15:00 +33°C° 0 mm 4 mps 733 mmHg 39%
16:00 +32°C° 0 mm 4 mps 733 mmHg 41%
17:00 +29°C° 0 mm 3 mps 733 mmHg 49%
18:00 +27°C° 0 mm 2 mps 733 mmHg 56%
19:00 +25°C° 0 mm 1 mps 733 mmHg 64%
20:00 +24°C° 0 mm 1 mps 733 mmHg 66%
21:00 +23°C° 0 mm 1 mps 734 mmHg 69%
22:00 +22°C° 0 mm 1 mps 734 mmHg 72%
23:00 +22°C° 0 mm 1 mps 734 mmHg 71%
Show more